Regional Weather Roundup
Issued by NWS

Home | Current Version | Previous Version | Text Only | Print | Product List | Glossary Off
Versions: 1 2 3 4 5 6 7 8 9 10 11 12 13 14 15 16 17 18 19 20 21 22 23 24 25 26 27 28 29 30 31 32 33 34 35 36 37 38 39 40 41 42 43 44 45 46 47 48 49 50

000
ASUS43 KMPX 261610
RWRMN
WEATHER ROUNDUP FOR MINNESOTA
NATIONAL WEATHER SERVICE TWIN CITIES/CHANHASSEN MN
1000 AM CST WED NOV 26 2014


NOTE: "FAIR" INDICATES FEW OR NO CLOUDS BELOW 12,000 FEET WITH NO
SIGNIFICANT WEATHER AND/OR OBSTRUCTIONS TO VISIBILITY. N/A MEANS
CURRENT SKY AND/OR WEATHER CONDITIONS ARE NOT AVAILABLE.

MNZ060>063-068>070-261700-
   Twin Cities Metro

CITY           SKY/WX    TMP DP  RH WIND       PRES   REMARKS
TWIN CITIES    SNOW      23  20  88 NE8       30.16R VSB 1/2 WCI  14
ST PAUL        SNOW      23  20  88 N8        30.18R VSB 1/2 WCI  14
CRYSTAL        LGT SNOW  25  20  81 N9        30.16R VSB 3/4 WCI  15
BLAINE         CLOUDY    25  23  93 N12       30.17R WCI  14
LAKEVILLE      LGT SNOW  21  19  93 NE7       30.14R WCI  13
EDEN PRAIRIE   SNOW      24  21  88 NE8       30.15R VSB 1/2 WCI  15
SOUTH ST PAUL  MIX PCPN  24  21  88 NE5       30.16R WCI  18
LAKE ELMO      LGT SNOW  23  21  93 NE6       30.17R VSB 1   WCI  16
$$
MNZ001>005-007-008-013>017-022>024-027-028-261700-
   Northwest Minnesota

CITY           SKY/WX    TMP DP  RH WIND       PRES   REMARKS
BEMIDJI        FLURRIES   6   1  78 N10       30.26S WCI  -8
HALLOCK        SUNNY     -6 -11  77 N13       30.44R WCI -25
ROSEAU         SUNNY     -4 -11  71 N9        30.38R WCI -20
WARROAD        SUNNY     -6 -11  77 NW7       30.36R WCI -20
THIEF RVR FALL CLOUDY     0  -8  71 N14       30.36R WCI -19
CROOKSTON      PTSUNNY    1  -6  71 N16       30.41R WCI -18
FOSSTON        CLOUDY     3  -6  66 N17       30.33R WCI -17
DETROIT LAKES  MOSUNNY    7   3  85 N17G23    30.29R WCI -12
MOORHEAD       CLOUDY     3   0  85 N18       30.37R WCI -17
PARK RAPIDS    CLOUDY    11   5  77 N10       30.22R WCI  -3
MAHNOMEN       PTSUNNY    3  -3  79 N17       30.31R WCI -17
$$
MNZ006-009>011-018-025>026-261700-
   North Central Minnesota

CITY           SKY/WX    TMP DP  RH WIND       PRES   REMARKS
BAUDETTE       SUNNY     -1  -6  79 NW12      30.32R WCI -18
FLAG ISLAND    SUNNY     -8 -11  84 NW10      30.35R WCI -26
INTL FALLS     MOSUNNY    4  -2  76 N10       30.28R WCI -11
WASKISH        PTSUNNY    3   0  85 N6        30.30R WCI  -8
BIG FORK       LGT SNOW  10   5  79 N6        30.24R WCI   1
LONGVILLE      LGT SNOW  12   7  79 N6        30.23R WCI   3
GRAND RAPIDS   CLOUDY    12   7  79 NW15      30.20R WCI  -4
CRANE LAKE     FLURRIES  10   5  79 N6        30.26R WCI   1
ORR            LGT SNOW  12   5  73 NW7       30.19R WCI   2
COOK           FLURRIES  12   7  79 NW7       30.21R WCI   2
WALKER         FAIR      10   3  73 N7        30.24R WCI  -1
$$
MNZ012-019>021-037-261700-
   Northeast Minnesota

CITY           SKY/WX    TMP DP  RH WIND       PRES   REMARKS
DULUTH         PTSUNNY   19  11  70 N12       30.15R WCI   7
ELY            LGT SNOW  14  10  85 N7        30.17R WCI   4
HIBBING        LGT SNOW  16   7  67 N14       30.20R WCI   2
EVELETH        LGT SNOW  16  10  79 N9        30.19R WCI   4
DULUTH HARBOR  CLOUDY    23  16  74 CALM      30.21R
TWO HARBORS    MOSUNNY   21  14  73 N6        30.15R WCI  14
SILVER BAY     MOSUNNY   21  12  68 NW5       30.15R WCI  15
GRAND MARAIS     N/A     21  12  68 VRB3      30.18R
G MARAIS ARPRT LGT SNOW  14   9  79 NW6       30.10S WCI   5
$$
MNZ029>031-032-039>041-046>048-054>057-064-261700-
   West Central Minnesota

CITY           SKY/WX    TMP DP  RH WIND       PRES   REMARKS
FERGUS FALLS   CLOUDY     9   1  72 N15       30.32R WCI  -8
WHEATON        SUNNY      5   1  85 NW18G24   30.33R WCI -15
MORRIS         CLOUDY    10   7  85 NW23G30   30.24R WCI -10
ALEXANDRIA     CLOUDY    18  12  77 N15       30.21R WCI   4
ELBOW LAKE       N/A     11   7  85 NW16      30.25R WCI  -6
WADENA         FLURRIES  14   9  79 N10       30.22R WCI   1
GLENWOOD       MOSUNNY   19  14  79 N12       30.20R WCI   7
APPLETON       FOG       14  10  85 N24       30.25R VSB 1   WCI  -5
BENSON         MOSUNNY   19  16  86 N17       30.22R WCI   4
ORTONVILLE     CLOUDY     9   3  78 N23G30    30.26R HAZE    WCI -12
MADISON        CLOUDY    16  10  79 N22       30.25R HAZE    WCI  -2
WILLMAR        FAIR      25  18  74 N15       30.19R WCI  12
$$
MNZ033>034-036-042>043-049>051-058-059-261700-
   Central Minnesota

CITY           SKY/WX    TMP DP  RH WIND       PRES   REMARKS
ST CLOUD       CLOUDY    24  17  74 N9        30.18R WCI  14
SAUK CENTRE    FAIR      19  14  79 N9        30.19R WCI   9
PAYNESVILLE    CLOUDY    19  16  88 NW12      30.18R WCI   6
AITKIN         LGT RAIN  21  14  73 N10       30.19R WCI  10
PINE RIVER     LGT SNOW  16  10  79 N10G17    30.25R WCI   3
BRAINERD       CLOUDY    17  11  77 N16       30.21R WCI   2
STAPLES        FLURRIES  16  10  79 NE9       30.22R WCI   4
LONG PRAIRIE   CLOUDY    19  14  79 NW13      30.20R WCI   7
LITTLE FALLS   MOSUNNY   21  14  73 N6        30.20R WCI  14
LITCHFIELD     PTSUNNY   23  21  93 N8        30.17R WCI  14
BUFFALO        LGT SNOW  23  19  87 N7        30.18R WCI  14
MAPLE LAKE     CLOUDY    24  21  90 NE8       30.18R FOG     WCI  15
$$
MNZ037-044-045-052-053-261700-
   East Central Minnesota

CITY           SKY/WX    TMP DP  RH WIND       PRES   REMARKS
PRINCETON      LGT SNOW  23  18  80 N9        30.18R WCI  13
MORA           FLURRIES  21  16  79 N3        30.20R
CAMBRIDGE      CLOUDY    25  16  68 N5        30.17R WCI  19
RUSH CITY      CLOUDY    23  17  77 N6        30.18S WCI  16
MOOSE LAKE     CLOUDY    21  16  79 N7        30.17R WCI  13
HINCKLEY       FLURRIES  21  18  86 CALM      30.18S
CLOQUET        CLOUDY    19  12  73 NW14      30.17R WCI   6
MCGREGOR       CLOUDY    19  14  79 N8        30.20R WCI   9
$$
MNZ071>073-080-081-089-090-097-098-261700-
   Southwest Minnesota

CITY           SKY/WX    TMP DP  RH WIND       PRES   REMARKS
MONTEVIDEO     MOSUNNY   19  16  86 N21G28    30.22R WCI   3
GRANITE FALLS  CLOUDY    21  18  88 NW14      30.21R FOG     WCI   8
CANBY          LGT SNOW  13  10  88 NW16G25   30.25R WCI  -3
MARSHALL       CLOUDY    18  10  73 N28       30.18R WCI  -1
REDWOOD FALLS  LGT SNOW  24  20  84 N13       30.17R FOG     WCI  12
OLIVIA         LGT SNOW  23  19  86 N15       30.16R WCI  10
PIPESTONE      MOSUNNY   19  16  86 NE15G31   30.12R WCI   5
WINDOM         LGT SNOW  23  21  93 N21       30.10R VSB 1   WCI   8
WORTHINGTON    CLOUDY    21  18  86 N25       30.09R WCI   4
JACKSON        LGT SNOW  27  21  80 VRB15G24  30.07R WCI  15
TRACY          LGT SNOW  22  20  92 N20G26    30.15R WCI   7
SLAYTON        LGT SNOW  20  19  93 N26       30.11R WCI   2
$$
MNZ065>067-074>077-082>085-091>093-261700-
   South Central Minnesota

CITY           SKY/WX    TMP DP  RH WIND       PRES   REMARKS
MANKATO        CLOUDY    23  18  80 NE15      30.11R VSB 1/4 WCI  10
NEW ULM        SNOW      23  23 100 N7        30.13R VSB 1/2 WCI  15
ST JAMES       LGT SNOW  25  21  86 N15       30.12R VSB 3/4 WCI  12
FAIRMONT       CLOUDY    27  23  86 N12       30.07R WCI  16
GLENCOE        SNOW      24  23  93 N7        30.15R VSB 1/2 WCI  16
FARIBAULT      SNOW      21  19  93 N8        30.12R VSB 1/4 WCI  12
OWATONNA       SNOW      21  19  93 N8        30.10R VSB 1/2 WCI  12
WASECA         SNOW      23  18  80 N14       30.11R VSB 1/2 WCI  11
ALBERT LEA     LGT SNOW  27  25  93 NE6       30.06R VSB 1   WCI  20
$$
MNZ078>079-086>088-094>096-261700-
   Southeast Minnesota

CITY           SKY/WX    TMP DP  RH WIND       PRES   REMARKS
ROCHESTER      LGT SNOW  22  19  89 E10       30.07R FOG     WCI  11
RED WING       LGT SNOW  25  19  80 E3        30.15R
STANTON        LGT SNOW  24  20  86 NE9       30.12R VSB 1   WCI  14
DODGE CENTER   LGT SNOW  23  21  93 NE9       30.07R WCI  13
WINONA         PTSUNNY   25  19  80 SE7       30.14S WCI  17
AUSTIN         LGT SNOW  25  21  86 E8        30.05R WCI  16
PRESTON        CLOUDY    22  18  83 E9        30.07R WCI  12
$$
ABBREVIATIONS USED IN REMARKS
   TC - TEMPERATURES IN CELSIUS
  WCI - WIND CHILL INDEX
   HX - HEAT INDEX
  VSB - VISIBILITY
$$


USA.gov is the U.S. government's official web portal to all federal, state and local government web resources and services.